Simultaneous Nadir Overpasses (SNOs) Predictions

Prediction of SNOs between NOAA-20 and METOP-C Satellite Orbit:

Table of predicted SNOs for the next 14.0 days since TLE Epoch: 1/15/2022
Index Date (NOAA-20) Time (NOAA-20) Lat,Lon (NOAA-20) SZA (NOAA-20 ) Date (METOP-C) Time (METOP-C) Lat,Lon (METOP-C) SZA (METOP-C ) Distance(km) Time Diff (sec)
1 01/22/2022 05:29:07 -73.46, -92.08 86.59 01/22/2022 05:30:13 -73.41, -88.94 86.81 99.70 66
2 01/22/2022 06:19:49 73.25, 75.69 93.19 01/22/2022 06:20:57 73.19, 77.91 92.99 71.68 68
3 01/22/2022 07:10:31 -73.16,-116.78 86.94 01/22/2022 07:11:40 -73.14,-114.88 87.07 61.44 69
4 01/22/2022 08:01:13 72.95, 50.97 92.84 01/22/2022 08:02:24 72.92, 51.98 92.73 33.19 71
5 01/22/2022 08:51:55 -72.86,-141.51 87.28 01/22/2022 08:53:08 -72.82,-140.90 87.37 20.21 73
6 01/22/2022 09:42:38 72.70, 26.13 92.54 01/22/2022 09:43:50 72.69, 26.17 92.52 1.61 72
7 01/22/2022 10:33:22 -72.70,-166.57 87.47 01/22/2022 10:34:32 -72.70,-166.50 87.49 2.41 70
8 01/22/2022 11:24:08 72.70, 0.75 92.53 01/22/2022 11:25:12 72.67, 0.79 92.48 3.13 64
9 01/22/2022 12:14:51 -72.65, 168.16 87.54 01/22/2022 12:15:54 -72.68, 168.12 87.53 2.99 63
10 01/22/2022 13:05:37 72.65, -24.52 92.45 01/22/2022 13:06:34 72.65, -24.59 92.45 2.53 57
11 01/22/2022 13:56:21 -72.65, 142.79 87.55 01/22/2022 13:57:16 -72.66, 142.74 87.56 1.69 55
12 01/22/2022 14:47:07 72.65, -49.89 92.44 01/22/2022 14:47:56 72.63, -49.98 92.42 3.31 49
13 01/22/2022 15:37:51 -72.65, 117.41 87.57 01/22/2022 15:38:38 -72.64, 117.36 87.59 2.66 47
14 01/22/2022 16:28:37 72.65, -75.27 92.42 01/22/2022 16:29:17 72.66, -75.25 92.43 1.57 40
15 01/22/2022 17:19:21 -72.65, 92.04 87.59 01/22/2022 17:19:59 -72.67, 92.08 87.58 1.99 38
16 01/22/2022 18:10:07 72.65,-100.64 92.41 01/22/2022 18:10:39 72.64,-100.64 92.39 0.83 32
17 01/22/2022 19:00:51 -72.65, 66.67 87.60 01/22/2022 19:01:21 -72.65, 66.70 87.62 1.31 30
18 01/22/2022 19:51:37 72.65,-126.02 92.39 01/22/2022 19:52:01 72.62,-126.02 92.36 3.13 24
19 01/22/2022 20:42:21 -72.65, 41.29 87.62 01/22/2022 20:42:43 -72.63, 41.32 87.65 3.14 22
20 01/22/2022 21:33:07 72.65,-151.39 92.37 01/22/2022 21:33:22 72.65,-151.30 92.37 3.13 15
21 01/22/2022 22:23:50 -72.60, 16.02 87.69 01/22/2022 22:24:05 -72.60, 15.93 87.69 2.88 15
22 01/22/2022 23:14:37 72.65,-176.77 92.36 01/22/2022 23:14:44 72.63,-176.68 92.33 3.54 7
23 01/23/2022 00:05:20 -72.60, -9.35 87.71 01/23/2022 00:05:27 -72.58, -9.45 87.72 3.65 7
24 01/23/2022 00:56:06 72.60, 157.96 92.29 01/23/2022 00:56:06 72.61, 157.94 92.30 1.51 0
25 01/23/2022 01:46:50 -72.60, -34.73 87.72 01/23/2022 01:46:48 -72.61, -34.73 87.71 1.44 2
26 01/23/2022 02:37:36 72.60, 132.59 92.27 01/23/2022 02:37:28 72.59, 132.56 92.26 1.54 8
27 01/23/2022 03:28:20 -72.60, -60.10 87.74 01/23/2022 03:28:10 -72.59, -60.11 87.74 0.84 10
28 01/23/2022 04:19:06 72.60, 107.21 92.25 01/23/2022 04:18:49 72.62, 107.28 92.27 3.09 17
29 01/23/2022 05:09:50 -72.60, -85.48 87.76 01/23/2022 05:09:32 -72.57, -85.49 87.78 3.12 18
30 01/23/2022 06:00:36 72.60, 81.84 92.24 01/23/2022 06:00:11 72.60, 81.89 92.24 1.83 25
31 01/23/2022 06:51:20 -72.60,-110.85 87.77 01/23/2022 06:50:53 -72.60,-110.77 87.77 2.83 27
32 01/23/2022 07:42:06 72.60, 56.46 92.22 01/23/2022 07:41:33 72.58, 56.51 92.20 2.84 33
33 01/23/2022 08:32:50 -72.60,-136.23 87.79 01/23/2022 08:32:15 -72.58,-136.15 87.80 3.26 35
34 01/23/2022 09:23:35 72.55, 31.19 92.15 01/23/2022 09:22:55 72.55, 31.13 92.17 2.33 40
35 01/23/2022 10:14:19 -72.55,-161.50 87.86 01/23/2022 10:13:37 -72.56,-161.53 87.84 1.75 42
36 01/23/2022 11:05:05 72.55, 5.82 92.13 01/23/2022 11:04:17 72.53, 5.75 92.13 2.73 48
37 01/23/2022 11:55:49 -72.55, 173.13 87.88 01/23/2022 11:54:59 -72.54, 173.09 87.87 1.59 50
38 01/23/2022 12:46:35 72.55, -19.56 92.12 01/23/2022 12:45:38 72.56, -19.53 92.15 2.16 57
39 01/23/2022 13:37:19 -72.55, 147.75 87.89 01/23/2022 13:36:20 -72.57, 147.81 87.86 3.10 59
40 01/23/2022 14:28:05 72.55, -44.93 92.10 01/23/2022 14:27:00 72.54, -44.91 92.11 0.66 65
41 01/23/2022 15:18:48 -72.55, 122.38 87.91 01/23/2022 15:17:41 -72.55, 122.43 87.90 1.66 67
42 01/23/2022 16:09:34 72.55, -70.30 92.08 01/23/2022 16:08:21 72.52, -70.30 92.08 2.67 73
43 01/23/2022 17:00:18 -72.55, 97.00 87.93 01/23/2022 16:59:03 -72.53, 97.05 87.93 2.51 75
44 01/23/2022 17:50:59 72.29, -95.17 91.79 01/23/2022 17:49:47 72.30, -96.08 91.86 30.87 72
45 01/23/2022 18:41:42 -72.24, 72.24 88.28 01/23/2022 18:40:30 -72.26, 71.16 88.19 36.48 72
46 01/23/2022 19:32:23 71.98,-119.95 91.44 01/23/2022 19:31:15 71.97,-122.05 91.56 72.41 68
47 01/23/2022 20:23:06 -71.94, 47.45 88.63 01/23/2022 20:21:58 -71.93, 45.20 88.49 77.77 68



Historial Predications of SNOs between NOAA-20 and METOP-C
